Weather History for CYYZ - September, 2012

Change the Weather History Date:

Wednesday, September 12, 2012

  Actual Average Record
Temperature  
Mean Temperature 70 °F -  
Max Temperature 82 °F 65 °F - ()
Min Temperature 58 °F 45 °F - ()
Cooling Degree Days 5    
Growing Degree Days 20 (Base 50)    
Moisture  
Dew Point 56 °F    
Average Humidity 62    
Maximum Humidity 88    
Minimum Humidity 35    
Precipitation  
Precipitation 0.00 in 0.09 in - ()
Sea Level Pressure  
Sea Level Pressure 30.22 in    
Wind  
Wind Speed 6 mph ()    
Max Wind Speed 14 mph    
Max Gust Speed 20 mph    
Visibility 15.0 miles    
Events      
T = Trace of Precipitation, MM = Missing Value Source: Averaged Metar Reports

Daily Weather History Graph

Daily Weather History Graph

Search for Another Location

Airport or City:

Trip Planner

Search our weather history database for the weather conditions in past years. The results will help you decide how hot, cold, wet, or windy it might be!

Date:

Astronomy

Sep. 12, 2012 Rise Set
Actual Time 6:55 AM EDT 7:33 PM EDT
Civil Twilight 6:26 AM EDT 8:02 PM EDT
Nautical Twilight 5:51 AM EDT 8:36 PM EDT
Astronomical Twilight 5:16 AM EDT 9:11 PM EDT
Moon 3:04 AM EDT (9/12) 5:24 PM EDT (9/12)
Length of Visible Light 13h 36m
Length of Day
12h 38m
Waning Crescent, 14% of the Moon is Illuminated
Sep 12
Waning Crescent
Sep 15
New
Sep 22
First Quarter
Sep 29
Full
Oct 8
Last Quarter

Hourly Weather History & Observations

Time (EDT) Temp. Heat Index Dew Point Humidity Pressure Visibility Wind Dir Wind Speed Gust Speed Precip Events Conditions
1:00 AM 62.6 °F - 53.6 °F 72% 30.20 in 15.0 mi SW 5.8 mph - N/A   Clear
2:00 AM 59 °F - 53 °F 75% 30.20 in 15 mi SW 6.9 mph - -  
2:00 AM 59.0 °F - 53.6 °F 82% 30.20 in 15.0 mi SW 5.8 mph - N/A   Clear
3:00 AM 60.8 °F - 55.4 °F 82% 30.20 in 15.0 mi SW 4.6 mph - N/A   Clear
4:00 AM 60.8 °F - 55.4 °F 82% 30.21 in 15.0 mi WNW 2.3 mph - N/A   Clear
5:00 AM 59.0 °F - 55.4 °F 88% 30.21 in 15.0 mi SW 4.6 mph - N/A   Clear
6:00 AM 60.8 °F - 57.2 °F 88% 30.22 in 15.0 mi SSW 5.8 mph - N/A   Clear
7:00 AM 62.6 °F - 57.2 °F 82% 30.24 in 15.0 mi South 3.5 mph - N/A   Partly Cloudy
8:00 AM 63 °F - 58 °F 78% 30.25 in 15 mi SW 4.6 mph - -   Clear
8:00 AM 62.6 °F - 57.2 °F 82% 30.25 in 15.0 mi SW 3.5 mph - N/A   Partly Cloudy
9:00 AM 66.2 °F - 59.0 °F 78% 30.24 in 15.0 mi SW 9.2 mph - N/A   Partly Cloudy
10:00 AM 69.8 °F - 59.0 °F 68% 30.25 in 15.0 mi SW 11.5 mph - N/A   Partly Cloudy
11:00 AM 73.4 °F - 59.0 °F 61% 30.25 in 15.0 mi SSW 8.1 mph - N/A   Partly Cloudy
12:00 PM 77.0 °F - 59.0 °F 54% 30.24 in 15.0 mi SW 10.4 mph 17.3 mph N/A   Partly Cloudy
1:00 PM 77.0 °F - 57.2 °F 50% 30.22 in 15.0 mi SW 11.5 mph 17.3 mph N/A   Partly Cloudy
2:00 PM 80 °F - 57 °F 35% 30.21 in 15 mi SW 11.5 mph - -   Clear
2:00 PM 78.8 °F - 57.2 °F 47% 30.21 in 15.0 mi WSW 11.5 mph 18.4 mph N/A   Partly Cloudy
3:00 PM 80.6 °F 81.1 °F 59.0 °F 48% 30.19 in 15.0 mi SW 8.1 mph 18.4 mph N/A   Partly Cloudy
4:00 PM 82.4 °F 82.0 °F 57.2 °F 42% 30.18 in 15.0 mi SW 12.7 mph 18.4 mph N/A   Partly Cloudy
5:00 PM 80.6 °F 80.8 °F 57.2 °F 45% 30.18 in 15.0 mi SW 12.7 mph 18.4 mph N/A   Partly Cloudy
6:00 PM 78.8 °F - 55.4 °F 44% 30.18 in 15.0 mi SSW 12.7 mph 19.6 mph N/A   Partly Cloudy
7:00 PM 77.0 °F - 51.8 °F 41% 30.19 in 15.0 mi SSW 13.8 mph - N/A   Partly Cloudy
8:00 PM 74 °F - 52 °F 36% 30.21 in 15 mi SW 9.2 mph - -   Clear
8:00 PM 75.2 °F - 51.8 °F 44% 30.21 in 15.0 mi SW 8.1 mph - N/A   Partly Cloudy
9:00 PM 71.6 °F - 53.6 °F 53% 30.22 in 15.0 mi SSW 6.9 mph - N/A   Partly Cloudy
10:00 PM 69.8 °F - 53.6 °F 56% 30.24 in 15.0 mi SW 4.6 mph - N/A   Clear
11:00 PM 68.0 °F - 53.6 °F 60% 30.24 in 15.0 mi SW 6.9 mph - N/A   Clear